Flag for Norway Weather past 2 weeks in Stavanger, Norway

Now
30 °F

Clear.


Feels Like: 25 °F
Forecast: 33 / 36 °F
Wind: 5 mph from North

Location: Stavanger / Sola

Current Time: Feb 1, 2015 at 10:29:13 PM

Latest Report: Feb 1, 2015 at 9:50 PM


Visibility: 10 mi

Pressure: 29.24 "Hg

Humidity: 69%

Dew point: 21 °F

Location of StavangerLocation

Historic Weather in Stavanger — Graph

°F

Stavanger temperature yesterday

Maximum temperature yesterday: 37 °F (at 5:50 AM)
Minimum temperature yesterday: 28 °F (at 10:50 PM)
Average temperature yesterday: 35 °F

Past Weeks' High & Low Weather Summary

 TemperatureHumidityPressure
High45 °F (Jan 25, 11:50 PM)100% (Jan 18, 9:20 PM)30.21 "Hg (Jan 18, 9:20 PM)
Low23 °F (Jan 22, 4:50 AM)45% (Jan 21, 3:50 PM)28.50 "Hg (Jan 29, 11:20 PM)
Average37 °F79%29.57 "Hg
* Reported Jan 17 8:20 PM — Feb 1 8:50 PM, Stavanger, Weather by CustomWeather, © 2014

Note: Actual official high and low records may vary slightly from our data, if they occured in-between our weather recording intervals... More about our weather records

Advertising

Stavanger weather history for previous 24 hours

 ConditionsComfort  
Time TempWeatherWind HumidityBarometerVisibility
8:50 PM
Feb 1
32 °FClear.7 mph64%29.21 "Hg10 mi
8:20 PM32 °FClear.9 mph64%29.21 "Hg10 mi
7:50 PM32 °FClear.8 mph64%29.21 "Hg10 mi
7:20 PM32 °FClear.9 mph69%29.21 "Hg10 mi
6:50 PM32 °FClear.9 mph69%29.21 "Hg10 mi
6:20 PM32 °FClear.9 mph64%29.21 "Hg10 mi
5:50 PM32 °FClear.9 mph69%29.21 "Hg10 mi
5:20 PM32 °FClear.7 mph69%29.21 "Hg10 mi
4:50 PM34 °FSunny.12 mph60%29.18 "Hg10 mi
4:20 PM34 °FSunny.14 mph60%29.18 "Hg10 mi
3:50 PM36 °FSunny.15 mph56%29.18 "Hg10 mi
3:20 PM36 °FSunny.15 mph52%29.18 "Hg10 mi
2:50 PM36 °FSunny.15 mph56%29.18 "Hg10 mi
2:20 PM36 °FSunny.15 mph56%29.15 "Hg10 mi
1:50 PM36 °FSunny.15 mph60%29.15 "Hg10 mi
1:20 PM36 °FSunny.13 mph60%29.15 "Hg10 mi
12:50 PM34 °FSunny.10 mph70%29.15 "Hg10 mi
12:20 PM34 °FSunny.7 mph70%29.15 "Hg10 mi
11:50 AM34 °FSunny.10 mph70%29.15 "Hg10 mi
11:20 AM32 °FSunny.9 mph75%29.15 "Hg10 mi
10:50 AM32 °FSunny.8 mph75%29.12 "Hg10 mi
10:20 AM30 °FSunny.7 mph80%29.12 "Hg10 mi
9:50 AM30 °FSunny.6 mph75%29.12 "Hg10 mi
9:20 AM28 °FSunny.2 mph86%29.12 "Hg10 mi
8:50 AM28 °FSunny.2 mph86%29.12 "Hg10 mi
8:20 AM27 °FClear.1 mph80%29.12 "Hg10 mi
7:50 AM27 °FClear.5 mph80%29.12 "Hg10 mi
7:20 AM28 °FClear.2 mph74%29.09 "Hg10 mi
6:50 AM30 °FClear.6 mph75%29.09 "Hg10 mi
6:20 AM28 °FClear.No wind74%29.09 "Hg10 mi
5:50 AM28 °FClear.1 mph80%29.09 "Hg10 mi
4:50 AM27 °FClear.1 mph80%29.09 "Hg10 mi
3:50 AM25 °FClear.No wind86%29.09 "Hg10 mi
2:50 AM25 °FClear.1 mph86%29.09 "Hg10 mi
1:50 AM25 °FClear.2 mph86%29.09 "Hg10 mi
1:20 AM27 °FClear.3 mph86%29.09 "Hg10 mi
12:50 AM27 °FClear.1 mph86%29.09 "Hg10 mi
12:20 AM30 °FClear.1 mph75%29.09 "Hg10 mi
11:50 PM
Jan 31
30 °FClear.No wind75%29.09 "Hg10 mi
11:20 PM28 °FClear.1 mph80%29.09 "Hg10 mi
10:50 PM28 °FClear.No wind74%29.06 "HgN/A
10:20 PM30 °FPassing clouds.2 mph75%29.09 "HgN/A
Weather by CustomWeather, © 2014

See weather overviewHow to use our weather pages